When you browse on this site, cookies collect data to enhance your experience and personalize the content and advertising you see.
Visit our Privacy Policy to learn more. By continuing to use the site, you agree to this use of cookies and data.
  • In Österreich
  • Länderverzeichnis
  • Für 7 Tage
  • Wassertemperatur
  • Satellitenkarten
  • Wetterkarte
  • News
  • Widgets
  • user-avatar
    Anmelden

    Stündliche Wetter Sylchet

    Heute, 19 Juni, Mittwoch

    Zeit Temperatur Niederschläge Wind Luftdruck Luftfeuchtigkeit
    00:00 +31°C° 0 mm 1 m/S 750 mmHg 82%
    01:00 +30°C° 0.1 mm 1 m/S 750 mmHg 83%
    02:00 +30°C° 0.1 mm 1 m/S 749 mmHg 85%
    03:00 +30°C° 0.1 mm 1 m/S 749 mmHg 87%
    04:00 +30°C° 0.7 mm 1 m/S 749 mmHg 88%
    05:00 +30°C° 0.7 mm 1 m/S 749 mmHg 89%
    06:00 +30°C° 0 mm 1 m/S 749 mmHg 89%
    07:00 +31°C° 0.4 mm 1 m/S 749 mmHg 83%
    08:00 +33°C° 0.4 mm 1 m/S 749 mmHg 77%
    09:00 +35°C° 0.4 mm 2 m/S 749 mmHg 72%
    10:00 +36°C° 0 mm 1 m/S 749 mmHg 65%
    11:00 +37°C° 0 mm 1 m/S 749 mmHg 58%
    12:00 +37°C° 0 mm 0 m/S 749 mmHg 48%
    13:00 +37°C° 0 mm 0 m/S 748 mmHg 46%
    14:00 +38°C° 0 mm 0 m/S 747 mmHg 44%
    15:00 +41°C° 0 mm 1 m/S 747 mmHg 42%
    16:00 +40°C° 0 mm 1 m/S 747 mmHg 47%
    17:00 +39°C° 0 mm 1 m/S 747 mmHg 52%
    18:00 +37°C° 0 mm 2 m/S 747 mmHg 57%
    19:00 +35°C° 0 mm 1 m/S 747 mmHg 60%
    20:00 +34°C° 0 mm 1 m/S 748 mmHg 63%
    21:00 +31°C° 0 mm 0 m/S 749 mmHg 66%
    22:00 +33°C° 0 mm 1 m/S 749 mmHg 70%
    23:00 +32°C° 0 mm 2 m/S 749 mmHg 74%

    Morgen, 20 Juni, Donnerstag

    Zeit Temperatur Niederschläge Wind Luftdruck Luftfeuchtigkeit
    00:00 +31°C° 0 mm 3 m/S 750 mmHg 78%
    01:00 +30°C° 0 mm 3 m/S 749 mmHg 80%
    02:00 +30°C° 0 mm 2 m/S 749 mmHg 82%
    03:00 +30°C° 0 mm 2 m/S 749 mmHg 84%
    04:00 +30°C° 0.1 mm 2 m/S 749 mmHg 85%
    05:00 +29°C° 0.1 mm 2 m/S 749 mmHg 86%
    06:00 +29°C° 0.1 mm 2 m/S 749 mmHg 87%
    07:00 +30°C° 0 mm 2 m/S 750 mmHg 82%
    08:00 +32°C° 0 mm 2 m/S 750 mmHg 76%
    09:00 +34°C° 0 mm 2 m/S 751 mmHg 71%
    10:00 +35°C° 0 mm 2 m/S 751 mmHg 68%
    11:00 +36°C° 0 mm 2 m/S 750 mmHg 65%
    12:00 +37°C° 0 mm 2 m/S 750 mmHg 62%
    13:00 +37°C° 0 mm 2 m/S 749 mmHg 60%
    14:00 +38°C° 0 mm 2 m/S 749 mmHg 59%
    15:00 +38°C° 0 mm 3 m/S 748 mmHg 57%
    16:00 +37°C° 0.1 mm 2 m/S 748 mmHg 60%
    17:00 +37°C° 0.1 mm 2 m/S 748 mmHg 63%
    18:00 +35°C° 0.1 mm 1 m/S 748 mmHg 66%
    19:00 +34°C° 0.2 mm 1 m/S 749 mmHg 69%
    20:00 +33°C° 0.2 mm 1 m/S 749 mmHg 72%
    21:00 +32°C° 0.2 mm 2 m/S 750 mmHg 75%
    22:00 +31°C° 0.4 mm 2 m/S 750 mmHg 78%
    23:00 +31°C° 0.4 mm 2 m/S 750 mmHg 81%

    übermorgen, 21 Juni, Freitag

    Zeit Temperatur Niederschläge Wind Luftdruck Luftfeuchtigkeit
    00:00 +30°C° 0.4 mm 3 m/S 750 mmHg 84%
    01:00 +30°C° 0.8 mm 2 m/S 750 mmHg 86%
    02:00 +29°C° 0.8 mm 1 m/S 750 mmHg 89%
    03:00 +27°C° 0.8 mm 0 m/S 750 mmHg 91%
    04:00 +27°C° 0.7 mm 0 m/S 750 mmHg 91%
    05:00 +27°C° 0.7 mm 0 m/S 750 mmHg 90%
    06:00 +27°C° 0.7 mm 0 m/S 751 mmHg 89%
    07:00 +31°C° 0.6 mm 1 m/S 751 mmHg 83%
    08:00 +32°C° 0.6 mm 2 m/S 751 mmHg 77%
    09:00 +34°C° 0.6 mm 2 m/S 751 mmHg 70%
    10:00 +35°C° 0.7 mm 2 m/S 751 mmHg 66%
    11:00 +37°C° 0.7 mm 2 m/S 751 mmHg 61%
    12:00 +38°C° 0.7 mm 2 m/S 751 mmHg 56%
    13:00 +38°C° 0.7 mm 2 m/S 750 mmHg 57%
    14:00 +37°C° 0.7 mm 2 m/S 750 mmHg 57%
    15:00 +37°C° 0.7 mm 2 m/S 749 mmHg 58%
    16:00 +36°C° 2.1 mm 2 m/S 749 mmHg 66%
    17:00 +34°C° 2.1 mm 2 m/S 749 mmHg 73%
    18:00 +32°C° 2.1 mm 2 m/S 749 mmHg 81%
    19:00 +31°C° 0.4 mm 2 m/S 750 mmHg 83%
    20:00 +31°C° 0.4 mm 2 m/S 751 mmHg 85%
    21:00 +30°C° 0.4 mm 2 m/S 751 mmHg 87%
    22:00 +30°C° 0.1 mm 2 m/S 751 mmHg 88%
    23:00 +29°C° 0.1 mm 2 m/S 751 mmHg 89%

    22 Juni, Samstag

    Zeit Temperatur Niederschläge Wind Luftdruck Luftfeuchtigkeit
    00:00 +29°C° 0.1 mm 2 m/S 752 mmHg 90%
    01:00 +29°C° 0.8 mm 2 m/S 751 mmHg 91%
    02:00 +29°C° 0.8 mm 2 m/S 751 mmHg 91%
    03:00 +29°C° 0.8 mm 2 m/S 750 mmHg 92%
    04:00 +29°C° 2.4 mm 2 m/S 751 mmHg 91%
    05:00 +29°C° 2.4 mm 2 m/S 751 mmHg 90%
    06:00 +29°C° 2.4 mm 3 m/S 751 mmHg 89%
    07:00 +30°C° 2.2 mm 3 m/S 751 mmHg 85%
    08:00 +31°C° 2.2 mm 3 m/S 752 mmHg 81%
    09:00 +33°C° 2.2 mm 3 m/S 752 mmHg 78%
    10:00 +34°C° 3.2 mm 2 m/S 752 mmHg 75%
    11:00 +34°C° 3.2 mm 2 m/S 751 mmHg 72%
    12:00 +34°C° 3.2 mm 1 m/S 751 mmHg 70%
    13:00 +33°C° 2 mm 1 m/S 751 mmHg 74%
    14:00 +33°C° 2 mm 1 m/S 750 mmHg 77%
    15:00 +32°C° 2 mm 1 m/S 750 mmHg 81%
    16:00 +32°C° 0.1 mm 1 m/S 750 mmHg 81%
    17:00 +32°C° 0.1 mm 1 m/S 750 mmHg 81%
    18:00 +32°C° 0.1 mm 1 m/S 750 mmHg 81%
    19:00 +31°C° 0.1 mm 1 m/S 750 mmHg 83%
    20:00 +30°C° 0.1 mm 2 m/S 751 mmHg 86%
    21:00 +30°C° 0.1 mm 2 m/S 751 mmHg 88%
    22:00 +29°C° 0.3 mm 2 m/S 751 mmHg 89%
    23:00 +29°C° 0.3 mm 2 m/S 751 mmHg 90%

    23 Juni, Sonntag

    Zeit Temperatur Niederschläge Wind Luftdruck Luftfeuchtigkeit
    00:00 +29°C° 0.3 mm 2 m/S 751 mmHg 91%
    01:00 +28°C° 0.7 mm 2 m/S 751 mmHg 92%
    02:00 +28°C° 0.7 mm 2 m/S 750 mmHg 93%
    03:00 +28°C° 0.7 mm 2 m/S 750 mmHg 94%
    04:00 +28°C° 1.5 mm 2 m/S 751 mmHg 93%
    05:00 +28°C° 1.5 mm 2 m/S 751 mmHg 93%
    06:00 +28°C° 1.5 mm 2 m/S 751 mmHg 92%
    07:00 +30°C° 1.8 mm 1 m/S 751 mmHg 86%
    08:00 +32°C° 1.8 mm 1 m/S 751 mmHg 80%
    09:00 +34°C° 1.8 mm 2 m/S 751 mmHg 74%
    10:00 +35°C° 0.8 mm 2 m/S 751 mmHg 71%
    11:00 +35°C° 0.8 mm 2 m/S 751 mmHg 67%
    12:00 +36°C° 0.8 mm 2 m/S 750 mmHg 64%
    13:00 +36°C° 0.6 mm 2 m/S 750 mmHg 64%
    14:00 +37°C° 0.6 mm 2 m/S 749 mmHg 63%
    15:00 +37°C° 0.6 mm 2 m/S 748 mmHg 62%
    16:00 +36°C° 0.8 mm 2 m/S 748 mmHg 67%
    17:00 +35°C° 0.8 mm 2 m/S 748 mmHg 71%
    18:00 +34°C° 0.8 mm 1 m/S 748 mmHg 76%
    19:00 +34°C° 0.5 mm 2 m/S 749 mmHg 79%
    20:00 +32°C° 0.5 mm 2 m/S 750 mmHg 81%
    21:00 +31°C° 0.5 mm 2 m/S 750 mmHg 84%
    22:00 +30°C° 0.5 mm 2 m/S 750 mmHg 86%
    23:00 +29°C° 0.5 mm 2 m/S 750 mmHg 88%

    24 Juni, Montag

    Zeit Temperatur Niederschläge Wind Luftdruck Luftfeuchtigkeit
    00:00 +29°C° 0.5 mm 3 m/S 750 mmHg 90%
    01:00 +29°C° 0.9 mm 2 m/S 750 mmHg 91%
    02:00 +29°C° 0.9 mm 2 m/S 750 mmHg 92%
    03:00 +29°C° 0.9 mm 2 m/S 750 mmHg 93%
    04:00 +29°C° 0.8 mm 2 m/S 750 mmHg 93%
    05:00 +29°C° 0.8 mm 2 m/S 750 mmHg 93%
    06:00 +29°C° 0.8 mm 2 m/S 750 mmHg 93%
    07:00 +30°C° 0.2 mm 2 m/S 751 mmHg 87%
    08:00 +31°C° 0.2 mm 2 m/S 751 mmHg 82%
    09:00 +32°C° 0.2 mm 2 m/S 751 mmHg 77%
    10:00 +34°C° 0.2 mm 2 m/S 751 mmHg 73%
    11:00 +35°C° 0.2 mm 2 m/S 751 mmHg 69%
    12:00 +36°C° 0.2 mm 3 m/S 750 mmHg 65%
    13:00 +36°C° 1 mm 3 m/S 750 mmHg 66%
    14:00 +36°C° 1 mm 3 m/S 749 mmHg 67%
    15:00 +36°C° 1 mm 3 m/S 748 mmHg 68%
    16:00 +35°C° 1.3 mm 2 m/S 748 mmHg 72%
    17:00 +34°C° 1.3 mm 2 m/S 748 mmHg 76%
    18:00 +32°C° 1.3 mm 2 m/S 748 mmHg 80%
    19:00 +32°C° 1.4 mm 2 m/S 749 mmHg 83%
    20:00 +31°C° 1.4 mm 3 m/S 749 mmHg 85%
    21:00 +30°C° 1.4 mm 3 m/S 750 mmHg 88%
    22:00 +30°C° 1.8 mm 3 m/S 750 mmHg 88%
    23:00 +29°C° 1.8 mm 4 m/S 750 mmHg 89%
    Mehr zeigen